sat.trackr.live / text

‹ back to catalog

NAVSTAR 63 (USA 203)

NORAD 34661 · 2009-014A

PAYLOAD ACTIVE UNKNOWN

§ Identity

Operator
Country
US
Launch date
2009-03-24
Launch site
AFETR
Launch vehicle
Mass (kg)
RCS (m²)
2.00

External: N2YO · Heavens-Above · Gunter

§ Orbital elements

Epoch: 2026-05-23T05:37:34.014144Z

Period
718.01 min
Inclination
54.4863°
Eccentricity
0.0144216
Mean motion
2.00553310 rev/d
Perigee alt
19,800.1 km
Apogee alt
20,566.2 km
Semi-major
26,561.3 km
B*
0.0000e+0
RAAN
211.6557°
Arg perigee
61.5748°
Mean anomaly
18.4350°
Rev number
12,578

§ Raw data

NAVSTAR 63 (USA 203)1 34661U 09014A   26143.23442146 -.00000012  00000+0  00000+0 0  99982 34661  54.4863 211.6557 0144216  61.5748  18.4350  2.00553310125781

JSON: /api/v1/satellites/34661 · /tle

For live sub-satellite position, see the globe view (requires WebGL).

§ Visibility from observer

Set your observer location to see the next 7 days of passes ≥ 10°. The values pass through the URL so the page stays shareable.

No JS? Fill the form by hand. The geolocation button needs JavaScript.